"Time","Value","Approval","myLocation"
"2023-05-06 00:00",14.245,"Approved","OW088"
"2023-05-06 01:00",14.229,"Approved","OW088"
"2023-05-06 02:00",14.283,"Approved","OW088"
"2023-05-06 03:00",14.284,"Approved","OW088"
"2023-05-06 04:00",14.294,"Approved","OW088"
"2023-05-06 05:00",14.581,"Approved","OW088"
"2023-05-06 06:00",14.602,"Approved","OW088"
"2023-05-06 07:00",14.612,"Approved","OW088"
"2023-05-06 08:00",14.618,"Approved","OW088"
"2023-05-06 09:00",14.371,"Approved","OW088"
"2023-05-06 10:00",14.276,"Approved","OW088"
"2023-05-06 11:00",14.253,"Approved","OW088"
"2023-05-06 12:00",14.232,"Approved","OW088"
"2023-05-06 13:00",14.221,"Approved","OW088"
"2023-05-06 14:00",14.269,"Approved","OW088"
"2023-05-06 15:00",14.28,"Approved","OW088"
"2023-05-06 16:00",14.57,"Approved","OW088"
"2023-05-06 17:00",14.594,"Approved","OW088"
"2023-05-06 18:00",14.31,"Approved","OW088"
"2023-05-06 19:00",14.251,"Approved","OW088"
"2023-05-06 20:00",14.239,"Approved","OW088"
"2023-05-06 21:00",14.228,"Approved","OW088"
"2023-05-06 22:00",14.22,"Approved","OW088"
"2023-05-06 23:00",14.272,"Approved","OW088"
"2023-05-07 00:00",14.275,"Approved","OW088"
"2023-05-07 01:00",14.28,"Approved","OW088"
"2023-05-07 02:00",14.563,"Approved","OW088"
"2023-05-07 03:00",14.578,"Approved","OW088"
"2023-05-07 04:00",14.254,"Approved","OW088"
"2023-05-07 05:00",14.231,"Approved","OW088"
"2023-05-07 06:00",14.221,"Approved","OW088"
"2023-05-07 07:00",14.212,"Approved","OW088"
"2023-05-07 08:00",14.261,"Approved","OW088"
"2023-05-07 09:00",14.228,"Approved","OW088"
"2023-05-07 10:00",14.213,"Approved","OW088"
"2023-05-07 11:00",14.203,"Approved","OW088"
"2023-05-07 12:00",14.248,"Approved","OW088"
"2023-05-07 13:00",14.258,"Approved","OW088"
"2023-05-07 14:00",14.558,"Approved","OW088"
"2023-05-07 15:00",14.583,"Approved","OW088"
"2023-05-07 16:00",14.591,"Approved","OW088"
"2023-05-07 17:00",14.603,"Approved","OW088"
"2023-05-07 18:00",14.611,"Approved","OW088"
"2023-05-07 19:00",14.627,"Approved","OW088"
"2023-05-07 20:00",14.631,"Approved","OW088"
"2023-05-07 21:00",14.311,"Approved","OW088"
"2023-05-07 22:00",14.274,"Approved","OW088"
"2023-05-07 23:00",14.265,"Approved","OW088"
"2023-05-08 00:00",14.25,"Approved","OW088"
"2023-05-08 01:00",14.293,"Approved","OW088"
"2023-05-08 02:00",14.304,"Approved","OW088"
"2023-05-08 03:00",14.57,"Approved","OW088"
"2023-05-08 04:00",14.613,"Approved","OW088"
"2023-05-08 05:00",14.627,"Approved","OW088"
"2023-05-08 06:00",14.633,"Approved","OW088"
"2023-05-08 07:00",14.306,"Approved","OW088"
"2023-05-08 08:00",14.281,"Approved","OW088"
"2023-05-08 09:00",14.263,"Approved","OW088"
"2023-05-08 10:00",14.248,"Approved","OW088"
"2023-05-08 11:00",14.282,"Approved","OW088"
"2023-05-08 12:00",14.292,"Approved","OW088"
"2023-05-08 13:00",14.579,"Approved","OW088"
"2023-05-08 14:00",14.597,"Approved","OW088"
"2023-05-08 15:00",14.609,"Approved","OW088"
"2023-05-08 16:00",14.612,"Approved","OW088"
"2023-05-08 17:00",14.622,"Approved","OW088"
"2023-05-08 18:00",14.942,"Approved","OW088"
"2023-05-08 19:00",14.709,"Approved","OW088"
"2023-05-08 20:00",14.314,"Approved","OW088"
"2023-05-08 21:00",14.283,"Approved","OW088"
"2023-05-08 22:00",14.265,"Approved","OW088"
"2023-05-08 23:00",14.254,"Approved","OW088"
"2023-05-09 00:00",14.241,"Approved","OW088"
"2023-05-09 01:00",14.286,"Approved","OW088"
"2023-05-09 02:00",14.297,"Approved","OW088"
"2023-05-09 03:00",14.308,"Approved","OW088"
"2023-05-09 04:00",14.305,"Approved","OW088"
"2023-05-09 05:00",14.31,"Approved","OW088"
"2023-05-09 06:00",14.317,"Approved","OW088"
"2023-05-09 07:00",14.257,"Approved","OW088"
"2023-05-09 08:00",14.248,"Approved","OW088"
"2023-05-09 09:00",14.425,"Approved","OW088"
"2023-05-09 10:00",14.234,"Approved","OW088"
"2023-05-09 11:00",14.28,"Approved","OW088"
"2023-05-09 12:00",14.283,"Approved","OW088"
"2023-05-09 13:00",14.559,"Approved","OW088"
"2023-05-09 14:00",14.588,"Approved","OW088"
"2023-05-09 15:00",14.603,"Approved","OW088"
"2023-05-09 16:00",14.613,"Approved","OW088"
"2023-05-09 17:00",14.624,"Approved","OW088"
"2023-05-09 18:00",14.632,"Approved","OW088"
"2023-05-09 19:00",14.639,"Approved","OW088"
"2023-05-09 20:00",14.65,"Approved","OW088"
"2023-05-09 21:00",14.664,"Approved","OW088"
"2023-05-09 22:00",14.958,"Approved","OW088"
"2023-05-09 23:00",14.37,"Approved","OW088"
"2023-05-10 00:00",14.32,"Approved","OW088"
"2023-05-10 01:00",14.304,"Approved","OW088"
"2023-05-10 02:00",14.286,"Approved","OW088"
"2023-05-10 03:00",14.27,"Approved","OW088"
"2023-05-10 04:00",14.302,"Approved","OW088"
"2023-05-10 05:00",14.319,"Approved","OW088"
"2023-05-10 06:00",14.325,"Approved","OW088"
"2023-05-10 07:00",14.613,"Approved","OW088"
"2023-05-10 08:00",14.632,"Approved","OW088"
"2023-05-10 09:00",14.356,"Approved","OW088"
"2023-05-10 10:00",14.302,"Approved","OW088"
"2023-05-10 11:00",14.267,"Approved","OW088"
"2023-05-10 12:00",14.241,"Approved","OW088"
"2023-05-10 13:00",14.225,"Approved","OW088"
"2023-05-10 14:00",14.22,"Approved","OW088"
"2023-05-10 15:00",14.261,"Approved","OW088"
"2023-05-10 16:00",14.271,"Approved","OW088"
"2023-05-10 17:00",14.549,"Approved","OW088"
"2023-05-10 18:00",14.583,"Approved","OW088"
"2023-05-10 19:00",14.603,"Approved","OW088"
"2023-05-10 20:00",14.611,"Approved","OW088"
"2023-05-10 21:00",14.626,"Approved","OW088"
"2023-05-10 22:00",14.937,"Approved","OW088"
"2023-05-10 23:00",14.993,"Approved","OW088"
"2023-05-11 00:00",14.396,"Approved","OW088"
"2023-05-11 01:00",14.327,"Approved","OW088"
"2023-05-11 02:00",14.303,"Approved","OW088"
"2023-05-11 03:00",14.288,"Approved","OW088"
"2023-05-11 04:00",14.275,"Approved","OW088"
"2023-05-11 05:00",14.31,"Approved","OW088"
"2023-05-11 06:00",14.327,"Approved","OW088"
"2023-05-11 07:00",14.625,"Approved","OW088"
"2023-05-11 08:00",14.651,"Approved","OW088"
"2023-05-11 09:00",14.655,"Approved","OW088"
"2023-05-11 10:00",14.417,"Approved","OW088"
"2023-05-11 11:00",14.321,"Approved","OW088"
"2023-05-11 12:00",14.285,"Approved","OW088"
"2023-05-11 13:00",14.27,"Approved","OW088"
"2023-05-11 14:00",14.249,"Approved","OW088"
"2023-05-11 15:00",14.241,"Approved","OW088"
"2023-05-11 16:00",14.287,"Approved","OW088"
"2023-05-11 17:00",14.293,"Approved","OW088"
"2023-05-11 18:00",14.521,"Approved","OW088"
"2023-05-11 19:00",14.604,"Approved","OW088"
"2023-05-11 20:00",14.625,"Approved","OW088"
"2023-05-11 21:00",14.643,"Approved","OW088"
"2023-05-11 22:00",14.663,"Approved","OW088"
"2023-05-11 23:00",14.677,"Approved","OW088"
"2023-05-12 00:00",15.024,"Approved","OW088"
"2023-05-12 01:00",15.012,"Approved","OW088"
"2023-05-12 02:00",14.408,"Approved","OW088"
"2023-05-12 03:00",14.369,"Approved","OW088"
"2023-05-12 04:00",14.344,"Approved","OW088"
"2023-05-12 05:00",14.332,"Approved","OW088"
"2023-05-12 06:00",14.324,"Approved","OW088"
"2023-05-12 07:00",14.371,"Approved","OW088"
"2023-05-12 08:00",14.378,"Approved","OW088"
"2023-05-12 09:00",14.662,"Approved","OW088"
"2023-05-12 10:00",14.683,"Approved","OW088"
"2023-05-12 11:00",14.691,"Approved","OW088"
"2023-05-12 12:00",14.696,"Approved","OW088"
"2023-05-12 13:00",14.698,"Approved","OW088"
"2023-05-12 14:00",14.387,"Approved","OW088"
"2023-05-12 15:00",14.336,"Approved","OW088"
"2023-05-12 16:00",14.316,"Approved","OW088"
"2023-05-12 17:00",14.299,"Approved","OW088"
"2023-05-12 18:00",14.321,"Approved","OW088"
"2023-05-12 19:00",14.343,"Approved","OW088"
"2023-05-12 20:00",14.632,"Approved","OW088"
"2023-05-12 21:00",14.672,"Approved","OW088"
"2023-05-12 22:00",14.688,"Approved","OW088"
"2023-05-12 23:00",14.711,"Approved","OW088"
"2023-05-13 00:00",15.038,"Approved","OW088"
"2023-05-13 01:00",14.865,"Approved","OW088"
"2023-05-13 02:00",14.815,"Approved","OW088"
"2023-05-13 03:00",14.426,"Approved","OW088"
"2023-05-13 04:00",14.394,"Approved","OW088"
"2023-05-13 05:00",14.377,"Approved","OW088"
"2023-05-13 06:00",14.363,"Approved","OW088"
"2023-05-13 07:00",14.384,"Approved","OW088"
"2023-05-13 08:00",14.408,"Approved","OW088"
"2023-05-13 09:00",14.409,"Approved","OW088"
"2023-05-13 10:00",14.703,"Approved","OW088"
"2023-05-13 11:00",14.716,"Approved","OW088"
"2023-05-13 12:00",14.722,"Approved","OW088"
"2023-05-13 13:00",14.722,"Approved","OW088"
"2023-05-13 14:00",15.018,"Approved","OW088"
"2023-05-13 15:00",15.061,"Approved","OW088"
"2023-05-13 16:00",14.809,"Approved","OW088"
"2023-05-13 17:00",14.405,"Approved","OW088"
"2023-05-13 18:00",14.366,"Approved","OW088"
"2023-05-13 19:00",14.346,"Approved","OW088"
"2023-05-13 20:00",14.334,"Approved","OW088"
"2023-05-13 21:00",14.359,"Approved","OW088"
"2023-05-13 22:00",14.381,"Approved","OW088"
"2023-05-13 23:00",14.649,"Approved","OW088"
"2023-05-14 00:00",14.698,"Approved","OW088"
"2023-05-14 01:00",14.712,"Approved","OW088"
"2023-05-14 02:00",14.721,"Approved","OW088"
"2023-05-14 03:00",14.992,"Approved","OW088"
"2023-05-14 04:00",15.084,"Approved","OW088"
"2023-05-14 05:00",15.108,"Approved","OW088"
"2023-05-14 06:00",15.103,"Approved","OW088"
"2023-05-14 07:00",14.467,"Approved","OW088"
"2023-05-14 08:00",14.415,"Approved","OW088"
"2023-05-14 09:00",14.384,"Approved","OW088"
"2023-05-14 10:00",14.362,"Approved","OW088"
"2023-05-14 11:00",14.372,"Approved","OW088"
"2023-05-14 12:00",14.376,"Approved","OW088"
"2023-05-14 13:00",14.374,"Approved","OW088"
"2023-05-14 14:00",14.654,"Approved","OW088"
"2023-05-14 15:00",14.667,"Approved","OW088"
"2023-05-14 16:00",14.672,"Approved","OW088"
"2023-05-14 17:00",14.679,"Approved","OW088"
"2023-05-14 18:00",14.68,"Approved","OW088"
"2023-05-14 19:00",15.024,"Approved","OW088"
"2023-05-14 20:00",15.049,"Approved","OW088"
"2023-05-14 21:00",14.824,"Approved","OW088"
"2023-05-14 22:00",14.395,"Approved","OW088"
"2023-05-14 23:00",14.354,"Approved","OW088"
"2023-05-15 00:00",14.338,"Approved","OW088"
"2023-05-15 01:00",14.319,"Approved","OW088"
"2023-05-15 02:00",14.336,"Approved","OW088"
"2023-05-15 03:00",14.331,"Approved","OW088"
"2023-05-15 04:00",14.579,"Approved","OW088"
"2023-05-15 05:00",14.597,"Approved","OW088"
"2023-05-15 06:00",14.6,"Approved","OW088"
"2023-05-15 07:00",14.982,"Approved","OW088"
"2023-05-15 08:00",15.13,"Approved","OW088"
"2023-05-15 09:00",15.053,"Approved","OW088"
"2023-05-15 10:00",15.069,"Approved","OW088"
"2023-05-15 11:00",15.059,"Approved","OW088"
"2023-05-15 12:00",14.828,"Approved","OW088"
"2023-05-15 13:00",14.838,"Approved","OW088"
"2023-05-15 14:00",14.401,"Approved","OW088"
"2023-05-15 15:00",14.358,"Approved","OW088"
"2023-05-15 16:00",14.331,"Approved","OW088"
"2023-05-15 17:00",14.306,"Approved","OW088"
"2023-05-15 18:00",14.333,"Approved","OW088"
"2023-05-15 19:00",14.341,"Approved","OW088"
"2023-05-15 20:00",14.639,"Approved","OW088"
"2023-05-15 21:00",14.667,"Approved","OW088"
"2023-05-15 22:00",14.684,"Approved","OW088"
"2023-05-15 23:00",14.695,"Approved","OW088"
"2023-05-16 00:00",15.053,"Approved","OW088"
"2023-05-16 01:00",15.082,"Approved","OW088"
"2023-05-16 02:00",15.109,"Approved","OW088"
"2023-05-16 03:00",15.131,"Approved","OW088"
"2023-05-16 04:00",15.128,"Approved","OW088"
"2023-05-16 05:00",14.495,"Approved","OW088"
"2023-05-16 06:00",14.45,"Approved","OW088"
"2023-05-16 07:00",14.424,"Approved","OW088"
"2023-05-16 08:00",14.396,"Approved","OW088"
"2023-05-16 09:00",14.379,"Approved","OW088"
"2023-05-16 10:00",14.706,"Approved","OW088"
"2023-05-16 11:00",15.038,"Approved","OW088"
"2023-05-16 12:00",15.09,"Approved","OW088"
"2023-05-16 13:00",15.107,"Approved","OW088"
"2023-05-16 14:00",15.119,"Approved","OW088"
"2023-05-16 15:00",14.869,"Approved","OW088"
"2023-05-16 16:00",14.827,"Approved","OW088"
"2023-05-16 17:00",14.816,"Approved","OW088"
"2023-05-16 18:00",14.777,"Approved","OW088"
"2023-05-16 19:00",14.439,"Approved","OW088"
"2023-05-16 20:00",14.409,"Approved","OW088"
"2023-05-16 21:00",14.395,"Approved","OW088"
"2023-05-16 22:00",14.378,"Approved","OW088"
"2023-05-16 23:00",14.419,"Approved","OW088"
"2023-05-17 00:00",14.422,"Approved","OW088"
"2023-05-17 01:00",14.717,"Approved","OW088"
"2023-05-17 02:00",14.74,"Approved","OW088"
"2023-05-17 03:00",14.751,"Approved","OW088"
"2023-05-17 04:00",15.072,"Approved","OW088"
"2023-05-17 05:00",15.13,"Approved","OW088"
"2023-05-17 06:00",15.163,"Approved","OW088"
"2023-05-17 07:00",15.163,"Approved","OW088"
"2023-05-17 08:00",14.912,"Approved","OW088"
"2023-05-17 09:00",14.865,"Approved","OW088"
"2023-05-17 10:00",14.496,"Approved","OW088"
"2023-05-17 11:00",14.449,"Approved","OW088"
"2023-05-17 12:00",14.411,"Approved","OW088"
"2023-05-17 13:00",14.384,"Approved","OW088"
"2023-05-17 14:00",14.359,"Approved","OW088"
"2023-05-17 15:00",14.396,"Approved","OW088"
"2023-05-17 16:00",14.69,"Approved","OW088"
"2023-05-17 17:00",14.706,"Approved","OW088"
"2023-05-17 18:00",14.707,"Approved","OW088"
"2023-05-17 19:00",14.712,"Approved","OW088"
"2023-05-17 20:00",14.722,"Approved","OW088"
"2023-05-17 21:00",15.068,"Approved","OW088"
"2023-05-17 22:00",15.087,"Approved","OW088"
"2023-05-17 23:00",14.843,"Approved","OW088"
"2023-05-18 00:00",14.778,"Approved","OW088"
"2023-05-18 01:00",14.437,"Approved","OW088"
"2023-05-18 02:00",14.405,"Approved","OW088"
"2023-05-18 03:00",14.382,"Approved","OW088"
"2023-05-18 04:00",14.377,"Approved","OW088"
"2023-05-18 05:00",14.409,"Approved","OW088"
"2023-05-18 06:00",14.417,"Approved","OW088"
"2023-05-18 07:00",14.721,"Approved","OW088"
"2023-05-18 08:00",14.735,"Approved","OW088"
"2023-05-18 09:00",14.957,"Approved","OW088"
"2023-05-18 10:00",15.082,"Approved","OW088"
"2023-05-18 11:00",14.913,"Approved","OW088"
"2023-05-18 12:00",14.812,"Approved","OW088"
"2023-05-18 13:00",14.789,"Approved","OW088"
"2023-05-18 14:00",14.745,"Approved","OW088"
"2023-05-18 15:00",14.4,"Approved","OW088"
"2023-05-18 16:00",14.364,"Approved","OW088"
"2023-05-18 17:00",14.339,"Approved","OW088"
"2023-05-18 18:00",14.325,"Approved","OW088"
"2023-05-18 19:00",14.379,"Approved","OW088"
"2023-05-18 20:00",14.635,"Approved","OW088"
"2023-05-18 21:00",14.705,"Approved","OW088"
"2023-05-18 22:00",14.735,"Approved","OW088"
"2023-05-18 23:00",15.087,"Approved","OW088"
"2023-05-19 00:00",15.126,"Approved","OW088"
"2023-05-19 01:00",15.151,"Approved","OW088"
"2023-05-19 02:00",15.177,"Approved","OW088"
"2023-05-19 03:00",15.196,"Approved","OW088"
"2023-05-19 04:00",15.215,"Approved","OW088"
"2023-05-19 05:00",14.952,"Approved","OW088"
"2023-05-19 06:00",14.744,"Approved","OW088"
"2023-05-19 07:00",14.536,"Approved","OW088"
"2023-05-19 08:00",14.502,"Approved","OW088"
"2023-05-19 09:00",14.472,"Approved","OW088"
"2023-05-19 10:00",14.455,"Approved","OW088"
"2023-05-19 11:00",14.475,"Approved","OW088"
"2023-05-19 12:00",14.483,"Approved","OW088"
"2023-05-19 13:00",14.74,"Approved","OW088"
"2023-05-19 14:00",14.777,"Approved","OW088"
"2023-05-19 15:00",14.783,"Approved","OW088"
"2023-05-19 16:00",15.105,"Approved","OW088"
"2023-05-19 17:00",14.926,"Approved","OW088"
"2023-05-19 18:00",14.867,"Approved","OW088"
"2023-05-19 19:00",14.516,"Approved","OW088"
"2023-05-19 20:00",14.456,"Approved","OW088"
"2023-05-19 21:00",14.43,"Approved","OW088"
"2023-05-19 22:00",14.415,"Approved","OW088"
"2023-05-19 23:00",14.435,"Approved","OW088"
"2023-05-20 00:00",14.457,"Approved","OW088"
"2023-05-20 01:00",14.744,"Approved","OW088"
"2023-05-20 02:00",14.776,"Approved","OW088"
"2023-05-20 03:00",15.093,"Approved","OW088"
"2023-05-20 04:00",15.153,"Approved","OW088"
"2023-05-20 05:00",15.185,"Approved","OW088"
"2023-05-20 06:00",15.194,"Approved","OW088"
"2023-05-20 07:00",14.942,"Approved","OW088"
"2023-05-20 08:00",14.912,"Approved","OW088"
"2023-05-20 09:00",14.904,"Approved","OW088"
"2023-05-20 10:00",14.685,"Approved","OW088"
"2023-05-20 11:00",14.507,"Approved","OW088"
"2023-05-20 12:00",14.464,"Approved","OW088"
"2023-05-20 13:00",14.44,"Approved","OW088"
"2023-05-20 14:00",14.415,"Approved","OW088"
"2023-05-20 15:00",14.453,"Approved","OW088"
"2023-05-20 16:00",14.742,"Approved","OW088"
"2023-05-20 17:00",14.755,"Approved","OW088"
"2023-05-20 18:00",14.762,"Approved","OW088"
"2023-05-20 19:00",15.101,"Approved","OW088"
"2023-05-20 20:00",15.142,"Approved","OW088"
"2023-05-20 21:00",15.169,"Approved","OW088"
"2023-05-20 22:00",15.191,"Approved","OW088"
"2023-05-20 23:00",15.184,"Approved","OW088"
"2023-05-21 00:00",14.558,"Approved","OW088"
"2023-05-21 01:00",14.503,"Approved","OW088"
"2023-05-21 02:00",14.475,"Approved","OW088"
"2023-05-21 03:00",14.455,"Approved","OW088"
"2023-05-21 04:00",14.462,"Approved","OW088"
"2023-05-21 05:00",14.488,"Approved","OW088"
"2023-05-21 06:00",14.771,"Approved","OW088"
"2023-05-21 07:00",14.792,"Approved","OW088"
"2023-05-21 08:00",14.8,"Approved","OW088"
"2023-05-21 09:00",14.801,"Approved","OW088"
"2023-05-21 10:00",14.803,"Approved","OW088"
"2023-05-21 11:00",14.802,"Approved","OW088"
"2023-05-21 12:00",14.793,"Approved","OW088"
"2023-05-21 13:00",14.44,"Approved","OW088"
"2023-05-21 14:00",14.408,"Approved","OW088"
"2023-05-21 15:00",14.392,"Approved","OW088"
"2023-05-21 16:00",14.438,"Approved","OW088"
"2023-05-21 17:00",14.453,"Approved","OW088"
"2023-05-21 18:00",14.744,"Approved","OW088"
"2023-05-21 19:00",14.768,"Approved","OW088"
"2023-05-21 20:00",15.083,"Approved","OW088"
"2023-05-21 21:00",15.147,"Approved","OW088"
"2023-05-21 22:00",15.149,"Approved","OW088"
"2023-05-21 23:00",14.863,"Approved","OW088"
"2023-05-22 00:00",14.858,"Approved","OW088"
"2023-05-22 01:00",14.538,"Approved","OW088"
"2023-05-22 02:00",14.475,"Approved","OW088"
"2023-05-22 03:00",14.451,"Approved","OW088"
"2023-05-22 04:00",14.428,"Approved","OW088"
"2023-05-22 05:00",14.413,"Approved","OW088"
"2023-05-22 06:00",14.459,"Approved","OW088"
"2023-05-22 07:00",14.46,"Approved","OW088"
"2023-05-22 08:00",14.754,"Approved","OW088"
"2023-05-22 09:00",14.772,"Approved","OW088"
"2023-05-22 10:00",14.774,"Approved","OW088"
"2023-05-22 11:00",14.78,"Approved","OW088"
"2023-05-22 12:00",14.785,"Approved","OW088"
"2023-05-22 13:00",14.783,"Approved","OW088"
"2023-05-22 14:00",14.461,"Approved","OW088"
"2023-05-22 15:00",14.428,"Approved","OW088"
"2023-05-22 16:00",14.412,"Approved","OW088"
"2023-05-22 17:00",14.441,"Approved","OW088"
"2023-05-22 18:00",14.457,"Approved","OW088"
"2023-05-22 19:00",14.743,"Approved","OW088"
"2023-05-22 20:00",14.773,"Approved","OW088"
"2023-05-22 21:00",14.779,"Approved","OW088"
"2023-05-22 22:00",14.784,"Approved","OW088"
"2023-05-22 23:00",14.789,"Approved","OW088"
"2023-05-23 00:00",14.791,"Approved","OW088"
"2023-05-23 01:00",14.789,"Approved","OW088"
"2023-05-23 02:00",14.512,"Approved","OW088"
"2023-05-23 03:00",14.495,"Approved","OW088"
"2023-05-23 04:00",14.48,"Approved","OW088"
"2023-05-23 05:00",14.439,"Approved","OW088"
"2023-05-23 06:00",14.402,"Approved","OW088"
"2023-05-23 07:00",14.389,"Approved","OW088"
"2023-05-23 08:00",14.378,"Approved","OW088"
"2023-05-23 09:00",14.427,"Approved","OW088"
"2023-05-23 10:00",14.781,"Approved","OW088"
"2023-05-23 11:00",14.805,"Approved","OW088"
"2023-05-23 12:00",14.81,"Approved","OW088"
"2023-05-23 13:00",14.802,"Approved","OW088"
"2023-05-23 14:00",14.455,"Approved","OW088"
"2023-05-23 15:00",14.422,"Approved","OW088"
"2023-05-23 16:00",14.401,"Approved","OW088"
"2023-05-23 17:00",14.391,"Approved","OW088"
"2023-05-23 18:00",14.423,"Approved","OW088"
"2023-05-23 19:00",14.44,"Approved","OW088"
"2023-05-23 20:00",14.72,"Approved","OW088"
"2023-05-23 21:00",14.756,"Approved","OW088"
"2023-05-23 22:00",14.76,"Approved","OW088"
"2023-05-23 23:00",14.773,"Approved","OW088"
"2023-05-24 00:00",14.781,"Approved","OW088"
"2023-05-24 01:00",14.788,"Approved","OW088"
"2023-05-24 02:00",14.598,"Approved","OW088"
"2023-05-24 03:00",14.443,"Approved","OW088"
"2023-05-24 04:00",14.421,"Approved","OW088"
"2023-05-24 05:00",14.407,"Approved","OW088"
"2023-05-24 06:00",14.396,"Approved","OW088"
"2023-05-24 07:00",14.445,"Approved","OW088"
"2023-05-24 08:00",14.449,"Approved","OW088"
"2023-05-24 09:00",14.742,"Approved","OW088"
"2023-05-24 10:00",14.761,"Approved","OW088"
"2023-05-24 11:00",14.762,"Approved","OW088"
"2023-05-24 12:00",14.763,"Approved","OW088"
"2023-05-24 13:00",14.767,"Approved","OW088"
"2023-05-24 14:00",14.49,"Approved","OW088"
"2023-05-24 15:00",14.405,"Approved","OW088"
"2023-05-24 16:00",14.385,"Approved","OW088"
"2023-05-24 17:00",14.368,"Approved","OW088"
"2023-05-24 18:00",14.353,"Approved","OW088"
"2023-05-24 19:00",14.399,"Approved","OW088"
"2023-05-24 20:00",14.408,"Approved","OW088"
"2023-05-24 21:00",14.644,"Approved","OW088"
"2023-05-24 22:00",14.712,"Approved","OW088"
"2023-05-24 23:00",14.733,"Approved","OW088"
"2023-05-25 00:00",14.745,"Approved","OW088"
"2023-05-25 01:00",15.064,"Approved","OW088"
"2023-05-25 02:00",15.109,"Approved","OW088"
"2023-05-25 03:00",14.555,"Approved","OW088"
"2023-05-25 04:00",14.445,"Approved","OW088"
"2023-05-25 05:00",14.417,"Approved","OW088"
"2023-05-25 06:00",14.399,"Approved","OW088"
"2023-05-25 07:00",14.384,"Approved","OW088"
"2023-05-25 08:00",14.404,"Approved","OW088"
"2023-05-25 09:00",14.413,"Approved","OW088"
"2023-05-25 10:00",14.412,"Approved","OW088"
"2023-05-25 11:00",14.606,"Approved","OW088"
"2023-05-25 12:00",14.7,"Approved","OW088"
"2023-05-25 13:00",14.709,"Approved","OW088"
"2023-05-25 14:00",14.715,"Approved","OW088"
"2023-05-25 15:00",15.026,"Approved","OW088"
"2023-05-25 16:00",14.475,"Approved","OW088"
"2023-05-25 17:00",14.375,"Approved","OW088"
"2023-05-25 18:00",14.35,"Approved","OW088"
"2023-05-25 19:00",14.333,"Approved","OW088"
"2023-05-25 20:00",14.326,"Approved","OW088"
"2023-05-25 21:00",14.365,"Approved","OW088"
"2023-05-25 22:00",14.376,"Approved","OW088"
"2023-05-25 23:00",14.66,"Approved","OW088"
"2023-05-26 00:00",14.695,"Approved","OW088"
"2023-05-26 01:00",14.714,"Approved","OW088"
"2023-05-26 02:00",15.059,"Approved","OW088"
"2023-05-26 03:00",15.093,"Approved","OW088"
"2023-05-26 04:00",15.1,"Approved","OW088"
"2023-05-26 05:00",14.787,"Approved","OW088"
"2023-05-26 06:00",14.434,"Approved","OW088"
"2023-05-26 07:00",14.401,"Approved","OW088"
"2023-05-26 08:00",14.374,"Approved","OW088"
"2023-05-26 09:00",14.353,"Approved","OW088"
"2023-05-26 10:00",14.355,"Approved","OW088"
"2023-05-26 11:00",14.375,"Approved","OW088"
"2023-05-26 12:00",14.669,"Approved","OW088"
"2023-05-26 13:00",14.677,"Approved","OW088"
"2023-05-26 14:00",14.685,"Approved","OW088"
"2023-05-26 15:00",14.692,"Approved","OW088"
"2023-05-26 16:00",15.026,"Approved","OW088"
"2023-05-26 17:00",15.052,"Approved","OW088"
"2023-05-26 18:00",14.788,"Approved","OW088"
"2023-05-26 19:00",14.389,"Approved","OW088"
"2023-05-26 20:00",14.352,"Approved","OW088"
"2023-05-26 21:00",14.341,"Approved","OW088"
"2023-05-26 22:00",14.33,"Approved","OW088"
"2023-05-26 23:00",14.377,"Approved","OW088"
"2023-05-27 00:00",14.384,"Approved","OW088"
"2023-05-27 01:00",14.687,"Approved","OW088"
"2023-05-27 02:00",14.7,"Approved","OW088"
"2023-05-27 03:00",14.708,"Approved","OW088"
"2023-05-27 04:00",14.721,"Approved","OW088"
"2023-05-27 05:00",14.73,"Approved","OW088"
"2023-05-27 06:00",14.736,"Approved","OW088"
"2023-05-27 07:00",14.739,"Approved","OW088"
"2023-05-27 08:00",14.479,"Approved","OW088"
"2023-05-27 09:00",14.452,"Approved","OW088"
"2023-05-27 10:00",14.435,"Approved","OW088"
"2023-05-27 11:00",14.422,"Approved","OW088"
"2023-05-27 12:00",14.411,"Approved","OW088"
"2023-05-27 13:00",14.689,"Approved","OW088"
"2023-05-27 14:00",14.697,"Approved","OW088"
"2023-05-27 15:00",14.708,"Approved","OW088"
"2023-05-27 16:00",14.712,"Approved","OW088"